• In Uzbekistan
  • List of Countries
  • For 7 days
  • Water Temperature
  • Satellite Maps
  • Weather Map
  • Weather Widgets
  • user-avatar
    Login

    Hourly Weather Zurawin

    Today, 22 September, Saturday

    Time Temperature Precipitation Wind Pressure Humidity
    00:00 +16°C° 0 mm 3 mps 711 mmHg 71%
    01:00 +16°C° 0 mm 3 mps 711 mmHg 69%
    02:00 +16°C° 0 mm 3 mps 711 mmHg 67%
    03:00 +14°C° 0 mm 3 mps 711 mmHg 65%
    04:00 +14°C° 0 mm 3 mps 711 mmHg 63%
    05:00 +14°C° 0 mm 3 mps 711 mmHg 62%
    06:00 +14°C° 0.1 mm 3 mps 712 mmHg 65%
    07:00 +14°C° 0.1 mm 3 mps 712 mmHg 68%
    08:00 +14°C° 0.1 mm 3 mps 713 mmHg 72%
    09:00 +14°C° 0.2 mm 3 mps 714 mmHg 74%
    10:00 +13°C° 0.2 mm 3 mps 714 mmHg 76%
    11:00 +13°C° 0.2 mm 3 mps 714 mmHg 79%
    12:00 +13°C° 0.9 mm 2 mps 714 mmHg 82%
    13:00 +12°C° 0.9 mm 2 mps 714 mmHg 86%
    14:00 +10°C° 0.9 mm 2 mps 715 mmHg 89%
    15:00 +11°C° 1 mm 1 mps 715 mmHg 90%
    16:00 +11°C° 1 mm 1 mps 715 mmHg 90%
    17:00 +10°C° 1 mm 1 mps 715 mmHg 91%
    18:00 +10°C° 0 mm 1 mps 715 mmHg 92%
    19:00 +9°C° 0 mm 1 mps 715 mmHg 92%
    20:00 +8°C° 0 mm 1 mps 715 mmHg 93%
    21:00 +8°C° 0 mm 1 mps 715 mmHg 91%
    22:00 +8°C° 0 mm 1 mps 715 mmHg 89%
    23:00 +8°C° 0 mm 1 mps 715 mmHg 87%

    Tomorrow, 23 September, Sunday

    Time Temperature Precipitation Wind Pressure Humidity
    00:00 +8°C° 0 mm 1 mps 715 mmHg 88%
    01:00 +8°C° 0 mm 1 mps 715 mmHg 89%
    02:00 +7°C° 0 mm 1 mps 715 mmHg 89%
    03:00 +6°C° 0 mm 2 mps 715 mmHg 90%
    04:00 +6°C° 0 mm 2 mps 715 mmHg 90%
    05:00 +6°C° 0 mm 2 mps 714 mmHg 91%
    06:00 +7°C° 0 mm 2 mps 715 mmHg 90%
    07:00 +7°C° 0 mm 2 mps 715 mmHg 89%
    08:00 +8°C° 0 mm 2 mps 715 mmHg 88%
    09:00 +9°C° 0 mm 3 mps 715 mmHg 83%
    10:00 +11°C° 0 mm 3 mps 715 mmHg 78%
    11:00 +12°C° 0 mm 4 mps 715 mmHg 74%
    12:00 +12°C° 0 mm 4 mps 714 mmHg 72%
    13:00 +13°C° 0 mm 4 mps 714 mmHg 70%
    14:00 +13°C° 0 mm 5 mps 714 mmHg 69%
    15:00 +13°C° 0 mm 4 mps 713 mmHg 69%
    16:00 +13°C° 0 mm 4 mps 713 mmHg 70%
    17:00 +13°C° 0 mm 4 mps 713 mmHg 71%
    18:00 +12°C° 0 mm 4 mps 712 mmHg 72%
    19:00 +12°C° 0 mm 4 mps 712 mmHg 73%
    20:00 +11°C° 0 mm 4 mps 711 mmHg 74%
    21:00 +10°C° 0 mm 5 mps 710 mmHg 70%
    22:00 +12°C° 0 mm 5 mps 710 mmHg 67%
    23:00 +12°C° 0 mm 5 mps 709 mmHg 63%

    Day after tomorrow, 24 September, Monday

    Time Temperature Precipitation Wind Pressure Humidity
    00:00 +11°C° 0.1 mm 6 mps 708 mmHg 67%
    01:00 +11°C° 0.1 mm 6 mps 706 mmHg 70%
    02:00 +11°C° 0.1 mm 7 mps 705 mmHg 73%
    03:00 +12°C° 0.2 mm 7 mps 704 mmHg 73%
    04:00 +12°C° 0.2 mm 8 mps 703 mmHg 74%
    05:00 +13°C° 0.2 mm 9 mps 702 mmHg 74%
    06:00 +12°C° 0.8 mm 8 mps 703 mmHg 78%
    07:00 +12°C° 0.8 mm 8 mps 703 mmHg 82%
    08:00 +11°C° 0.8 mm 7 mps 704 mmHg 86%
    09:00 +10°C° 0.1 mm 7 mps 705 mmHg 84%
    10:00 +8°C° 0.1 mm 7 mps 707 mmHg 83%
    11:00 +7°C° 0.1 mm 6 mps 709 mmHg 81%
    12:00 +6°C° 0.2 mm 7 mps 710 mmHg 80%
    13:00 +8°C° 0.2 mm 7 mps 711 mmHg 78%
    14:00 +7°C° 0.2 mm 8 mps 712 mmHg 77%
    15:00 +8°C° 0.2 mm 7 mps 712 mmHg 73%
    16:00 +8°C° 0.2 mm 7 mps 713 mmHg 69%
    17:00 +8°C° 0.2 mm 6 mps 713 mmHg 65%
    18:00 +7°C° 0 mm 6 mps 714 mmHg 67%
    19:00 +6°C° 0 mm 5 mps 714 mmHg 68%
    20:00 +4°C° 0 mm 4 mps 715 mmHg 70%
    21:00 +4°C° 0 mm 4 mps 715 mmHg 72%
    22:00 +3°C° 0 mm 5 mps 715 mmHg 74%
    23:00 +3°C° 0 mm 5 mps 716 mmHg 76%

    25 September, Tuesday

    Time Temperature Precipitation Wind Pressure Humidity
    00:00 +4°C° 0 mm 4 mps 716 mmHg 78%
    01:00 +3°C° 0 mm 4 mps 717 mmHg 80%
    02:00 +3°C° 0 mm 4 mps 717 mmHg 81%
    03:00 +1°C° 0 mm 4 mps 717 mmHg 83%
    04:00 +2°C° 0 mm 3 mps 718 mmHg 85%
    05:00 +1°C° 0 mm 3 mps 718 mmHg 87%
    06:00 +2°C° 0 mm 3 mps 719 mmHg 84%
    07:00 +3°C° 0 mm 4 mps 719 mmHg 81%
    08:00 +3°C° 0 mm 4 mps 720 mmHg 78%
    09:00 +5°C° 0.1 mm 5 mps 720 mmHg 71%
    10:00 +6°C° 0.1 mm 5 mps 721 mmHg 63%
    11:00 +7°C° 0.1 mm 6 mps 722 mmHg 56%
    12:00 +8°C° 0.1 mm 6 mps 722 mmHg 54%
    13:00 +8°C° 0.1 mm 6 mps 722 mmHg 51%
    14:00 +8°C° 0.1 mm 6 mps 722 mmHg 49%
    15:00 +8°C° 0.1 mm 5 mps 722 mmHg 52%
    16:00 +7°C° 0.1 mm 5 mps 722 mmHg 56%
    17:00 +7°C° 0.1 mm 4 mps 722 mmHg 59%
    18:00 +5°C° 0 mm 3 mps 722 mmHg 64%
    19:00 +5°C° 0 mm 2 mps 723 mmHg 69%
    20:00 +3°C° 0 mm 2 mps 723 mmHg 74%
    21:00 +4°C° 0 mm 1 mps 723 mmHg 74%
    22:00 +3°C° 0 mm 1 mps 723 mmHg 75%
    23:00 +3°C° 0 mm 1 mps 723 mmHg 75%

    26 September, Wednesday

    Time Temperature Precipitation Wind Pressure Humidity
    00:00 +2°C° 0 mm 2 mps 723 mmHg 74%
    01:00 +2°C° 0 mm 2 mps 723 mmHg 73%
    02:00 +2°C° 0 mm 2 mps 722 mmHg 72%
    03:00 +2°C° 0 mm 2 mps 722 mmHg 72%
    04:00 +1°C° 0 mm 3 mps 722 mmHg 72%
    05:00 +1°C° 0 mm 3 mps 722 mmHg 71%
    06:00 +2°C° 0 mm 3 mps 722 mmHg 68%
    07:00 +3°C° 0 mm 4 mps 721 mmHg 65%
    08:00 +3°C° 0 mm 5 mps 721 mmHg 62%
    09:00 +5°C° 0.1 mm 5 mps 721 mmHg 61%
    10:00 +6°C° 0.1 mm 5 mps 721 mmHg 61%
    11:00 +7°C° 0.1 mm 6 mps 721 mmHg 61%
    12:00 +7°C° 0.5 mm 5 mps 721 mmHg 68%
    13:00 +7°C° 0.5 mm 4 mps 720 mmHg 75%
    14:00 +7°C° 0.5 mm 4 mps 720 mmHg 82%
    15:00 +7°C° 0.2 mm 4 mps 720 mmHg 83%
    16:00 +7°C° 0.2 mm 4 mps 720 mmHg 84%
    17:00 +8°C° 0.2 mm 3 mps 720 mmHg 85%
    18:00 +7°C° 0.1 mm 3 mps 721 mmHg 88%
    19:00 +6°C° 0.1 mm 2 mps 721 mmHg 91%
    20:00 +6°C° 0.1 mm 1 mps 721 mmHg 95%
    21:00 +6°C° 0 mm 1 mps 721 mmHg 95%
    22:00 +6°C° 0 mm 1 mps 721 mmHg 95%
    23:00 +6°C° 0 mm 1 mps 722 mmHg 95%

    27 September, Thursday

    Time Temperature Precipitation Wind Pressure Humidity
    00:00 +6°C° 0 mm 1 mps 722 mmHg 95%
    01:00 +6°C° 0 mm 1 mps 722 mmHg 95%
    02:00 +6°C° 0 mm 1 mps 722 mmHg 95%
    03:00 +6°C° 0 mm 1 mps 721 mmHg 95%
    04:00 +6°C° 0 mm 1 mps 721 mmHg 95%
    05:00 +5°C° 0 mm 1 mps 721 mmHg 95%
    06:00 +6°C° 0 mm 1 mps 721 mmHg 94%
    07:00 +7°C° 0 mm 1 mps 721 mmHg 92%
    08:00 +6°C° 0 mm 2 mps 721 mmHg 91%
    09:00 +8°C° 0 mm 2 mps 721 mmHg 83%
    10:00 +10°C° 0 mm 2 mps 721 mmHg 76%
    11:00 +12°C° 0 mm 3 mps 721 mmHg 68%
    12:00 +13°C° 0 mm 3 mps 720 mmHg 64%
    13:00 +13°C° 0 mm 3 mps 720 mmHg 59%
    14:00 +14°C° 0 mm 4 mps 719 mmHg 54%
    15:00 +14°C° 0 mm 4 mps 719 mmHg 57%
    16:00 +13°C° 0 mm 4 mps 718 mmHg 60%
    17:00 +13°C° 0 mm 3 mps 718 mmHg 62%
    18:00 +11°C° 0 mm 3 mps 717 mmHg 67%
    19:00 +10°C° 0 mm 4 mps 717 mmHg 71%
    20:00 +8°C° 0 mm 4 mps 717 mmHg 76%
    21:00 +7°C° 0 mm 4 mps 717 mmHg 75%
    22:00 +7°C° 0 mm 4 mps 717 mmHg 75%
    23:00 +7°C° 0 mm 4 mps 716 mmHg 75%
    Show more